Overview Statistics Trail Chart Weather Telemetry Raw packets
 

This is the latest recevied weather packets stored in our database for station/object OH6GKW. If no packets are shown the sender has not sent any weather packets the latest 10 day(s).

<< 58 59 60 61 62 63 64 >>
Time Temp. Humidity Pressure Rain* Wind** Luminosity Snow
1788264511 16.67° C 85% 1002.2 hPa 0.25 mm - 248 W/m² -
1788264226 16.67° C 86% 1002.2 hPa 0.25 mm - 484 W/m² -
1788263916 16.67° C 85% 1002.2 hPa 0.25 mm - 480 W/m² -
1788263640 16.67° C 85% 1002.2 hPa 0.25 mm - 486 W/m² -
1788263331 16.67° C 88% 1002.2 hPa 0.25 mm - 602 W/m² -
1788263020 16.11° C 89% 1002.1 hPa 0.25 mm - 517 W/m² -
1788262712 16.11° C 90% 1002.1 hPa 0.25 mm - 260 W/m² -
1788262426 16.11° C 93% 1002.1 hPa 0.25 mm - 267 W/m² -
1788262119 16.11° C 93% 1002.1 hPa 0.25 mm - 310 W/m² -
1788261814 16.11° C 95% 1002.1 hPa 0.25 mm - 417 W/m² -
1788261506 15.56° C 97% 1002.1 hPa 0.25 mm - 433 W/m² -
1788261234 15.56° C 96% 1002 hPa 0.25 mm - 239 W/m² -
1788260926 15.56° C 98% 1002 hPa 0.25 mm - 141 W/m² -
1788260622 15.56° C 98% 1002 hPa 0.25 mm - 187 W/m² -
1788260311 15.56° C 98% 1001.8 hPa 0.25 mm - 225 W/m² -
1788260020 15.56° C 98% 1001.8 hPa 0.25 mm - 266 W/m² -
1788259720 15.56° C 98% 1001.8 hPa 0.25 mm - 209 W/m² -
1788259419 16.11° C 98% 1001.6 hPa 0.25 mm - 192 W/m² -
1788259111 16.11° C 98% 1001.6 hPa 0.25 mm - 97 W/m² -
1788258812 17.22° C 98% 1001.6 hPa 0.25 mm - 35 W/m² -
1788258522 17.22° C 98% 1001.6 hPa 0 mm - 58 W/m² -
1788258214 17.22° C 98% 1001.6 hPa 0 mm - 81 W/m² -
1788257937 16.67° C 98% 1001.6 hPa 0 mm - 273 W/m² -
1788257630 16.67° C 98% 1001.6 hPa 0 mm - 230 W/m² -
1788257322 16.67° C 98% 1001.6 hPa 0 mm - 99 W/m² -

* Rain since midnight (hover to see other rain measurements)
** Current wind speed in m/s (hover to see current wind gust speed)